Location: Antioch Baptist Church
(32.6696°N, 85.7327°W)
Time: 21:06:20
(UTC+00:00)

SL-8 Rocket - Pass Details

Date: 14 July 2020
Orbit: 958 x 990 km, 82.9° (Epoch: 13 August)

Event Time Altitude Azimuth Distance (km) Brightness Sun altitude
Exits shadow 04:32:33 59° 297° (WNW) 1,095 4.3 -32.7°
Drops below altitude 10° 04:38:13 10° 358° (N) 2,694 7.1 -33.2°
Sets 04:40:46 0° 2° (N) 3,643 7.9 -33.3°
